{"data":{"norad_id":69199,"intl_designator":"2026-114T","name":"STARLINK-37406","alt_names":[],"object_type":"PAYLOAD","status":"ACTIVE","operator":null,"country":"US","launch_date":"2026-05-25","launch_site_code":"AFETR","launch_vehicle":null,"mission":null,"orbit_class":"UNKNOWN","rcs_meters":null,"size_class":null,"mass_kg":null,"dimensions":null,"purposes":["comms"],"wikipedia_slug":null,"has_3d_model":false,"image_url":null,"decayed_at":null,"tle_current":{"epoch":"2026-09-19T07:20:51.904320Z","epoch_age_seconds":130115,"freshness":"FRESH","line1":"1 69199U 26114T   26262.30615630  .00012205  00000+0  37175-3 0  9995","line2":"2 69199  53.1572 119.2578 0001131  91.5931 268.5201 15.34401027 19265","mean_motion":15.34401027,"eccentricity":0.0001131,"inclination_deg":53.1572,"raan_deg":119.2578,"arg_perigee_deg":91.5931,"mean_anomaly_deg":268.5201,"bstar":0.00037175,"rev_number":1926,"period_min":93.847695267477,"perigee_km":461.92648906244,"apogee_km":463.47388643431,"semimajor_km":6840.8371877484,"source":"CELESTRAK","updated_at":"2026-09-20T09:00:44.099054Z"}}}